Cloud_Cover
2 5 5 5 5 13 12 47 100 100 97 5 5 0 62 38 6 5 5 31 93 82 95 81 68 5 2 0 0 0 4 5
1 5 0 3 5 5 5 56 18 12 74 69 4 4 37 49 6 21 82 100 53 22 59 26 5 5 0 0 0 0 0 1
0 0 6 100 68 72 1 0 5 61 21 27 22 28 86 98 100 97 78 97 95 18 62 15 5 2 0 0 0 0 0 1
20 5 58 66 3 0 0 1 0 12 66 99 98 100 100 69 18 42 87 100 79 29 1 4 5 5 1 0 2 4 0 1
54 30 8 44 0 0 0 5 24 41 14 21 97 99 100 99 95 8 5 5 18 5 5 5 5 5 5 3 0 2 5 28
100 100 100 78 0 0 0 0 0 1 5 60 67 100 84 49 57 86 100 100 100 100 98 30 5 5 2 0 0 0 5 5
81 98 84 3 0 0 0 0 1 3 5 54 100 100 100 100 100 100 100 100 96 46 31 15 5 5 2 2 3 24 24 69
11 5 6 2 5 5 5 18 17 17 54 20 14 40 83 98 100 93 100 99 89 95 74 40 1 0 0 0 1 5 5 45
70 5 5 0 0 7 33 100 100 98 100 77 32 51 91 100 100 100 100 77 1 5 5 0 0 0 0 0 0 0 4 5
5 5 5 5 6 7 47 28 5 5 5 5 4 5 5 5 2 3 5 0 0 4 2 5 9 5 0 0 3 0 0 4
14 5 11 5 8 5 5 5 20 2 0 2 5 5 4 5 5 3 3 21 8 86 87 79 98 79 48 29 69 60 2 0
99 100 100 100 23 5 5 4 0 3 5 5 4 2 5 5 5 13 80 60 99 100 100 100 100 100 77 63 100 5 0 4
99 90 80 5 0 0 5 5 5 5 5 5 5 5 5 5 5 0 11 55 41 100 100 94 24 100 83 99 86 0 5 90
100 74 5 5 5 5 5 5 5 5 5 5 5 5 5 4 2 2 72 99 100 93 100 100 100 78 98 74 0 1 5 5
5 5 5 5 5 5 6 24 5 5 5 6 5 5 5 5 4 5 31 59 100 100 95 100 100 9 25 0 5 5 5 5
93 77 74 5 31 42 6 5 5 5 57 6 5 68 0 0 3 18 38 76 51 100 100 100 100 67 1 66 79 5 5 4
98 25 5 5 5 6 5 5 5 5 5 5 1 0 0 0 0 5 23 57 100 100 100 100 100 31 77 82 5 5 5 5
5 5 5 6 11 5 5 5 5 5 0 1 2 0 0 0 4 33 68 78 100 100 100 100 71 16 14 5 5 9 43 5
5 5 5 5 5 5 16 5 5 5 5 2 0 0 1 0 5 13 76 55 100 100 98 36 55 5 5 9 51 5 5 5